Location: Kielce
(50.8833°N, 20.6167°E)
Time: 23:58:13
(UTC+02:00)

SR - Pass Details

Date: 27 April 2021
Orbit: 573 x 882 km, 66.7° (Epoch: 16 May)

Event Time Altitude Azimuth Distance (km) Brightness Sun altitude
Rises 13:04:27 0° 321° (NW) 3,490 ? 52.6°
Reaches altitude 10° 13:07:15 10° 330° (NNW) 2,538 ? 52.5°
Maximum altitude 13:12:34 33° 34° (NE) 1,395 ? 52.3°
Drops below altitude 10° 13:17:38 10° 98° (E) 2,417 ? 52.1°
Sets 13:20:14 0° 108° (ESE) 3,301 ? 52.0°
